{"data":{"norad_id":53193,"intl_designator":"2022-084E","name":"STARLINK-4351","alt_names":[],"object_type":"PAYLOAD","status":"ACTIVE","operator":null,"country":"US","launch_date":"2022-07-22","launch_site_code":"AFWTR","launch_vehicle":null,"mission":null,"orbit_class":"UNKNOWN","rcs_meters":null,"size_class":null,"mass_kg":null,"dimensions":null,"purposes":["comms"],"wikipedia_slug":null,"has_3d_model":false,"image_url":null,"decayed_at":null,"tle_current":{"epoch":"2026-09-19T10:24:23.874624Z","epoch_age_seconds":164393,"freshness":"FRESH","line1":"1 53193U 22084E   26262.43360966 -.00000542  00000+0 -14478-4 0  9992","line2":"2 53193  97.2830 317.2626 0001615  94.0445 266.0983 15.33429784229540","mean_motion":15.33429784,"eccentricity":0.0001615,"inclination_deg":97.283,"raan_deg":317.2626,"arg_perigee_deg":94.0445,"mean_anomaly_deg":266.0983,"bstar":-1.4478e-5,"rev_number":22954,"period_min":93.907136474401,"perigee_km":464.48318530344,"apogee_km":466.69370862281,"semimajor_km":6843.7254469631,"source":"CELESTRAK","updated_at":"2026-09-20T09:00:40.189710Z"}}}